[Date Prev][Date Next][Thread Prev][Thread Next] - [Date Index][Thread Index][Author Index]
2 Line ISS Keps 12-12
- Subject: [sarex] 2 Line ISS Keps 12-12
- From: "Dave Larsen PhD" <doc@xxxxxxxxxxx>
- Date: Sun, 11 Dec 2005 19:46:40 -0800
ISS
1 25544U 98067A 05346.01129630 .00022416 00000-0 16464-3 0 9270
2 25544 051.6446 069.5324 0010021 030.8421 324.6534 15.72971882403665
----
Via the sarex mailing list at AMSAT.ORG courtesy of AMSAT-NA.
To unsubscribe, send "unsubscribe sarex" to Majordomo@amsat.org
AMSAT Home